VIR6306 LEIB-EGKK

Flight info

Callsign VIR6306
Flight time 1h 58m
Altitude 40000
Route EPAMA N856 UMURE DCT XIKEN DCT KARES DCT ARBEK DCT REBUL DCT USKAR DCT MOPAS DCT GIROM DCT GONUP DCT MANAK DCT EPAPU DCT RINSO DCT EKRAS DCT REVTU DCT ODREP UP88 VASUX
Aircraft A339/H-SADE1E2E3GHIJ1J3J5M1P2RWXY/LB2D1

Departure

Time 2026-05-06 09:39
Airport Ibiza Airport (LEIB)

Arrival

Time 2026-05-06 11:37
Airport London Gatwick Airport (EGKK)
Time Latitude Longitude Altitude Speed Heading
2026-05-06 08:38 38.87534 1.36870 53 ft 0 kts 332°
2026-05-06 09:30 38.87526 1.36876 45 ft 3 kts 332°
2026-05-06 09:30 38.87506 1.36888 44 ft 3 kts 313°
2026-05-06 09:31 38.87492 1.36907 45 ft 3 kts 268°
2026-05-06 09:31 38.87496 1.36937 44 ft 4 kts 242°
2026-05-06 09:31 38.87503 1.36953 44 ft 0 kts 243°
2026-05-06 09:32 38.87502 1.36952 44 ft 1 kts 243°
2026-05-06 09:32 38.87498 1.36940 44 ft 3 kts 243°
2026-05-06 09:32 38.87492 1.36925 44 ft 0 kts 243°
2026-05-06 09:33 38.87490 1.36921 46 ft 0 kts 243°
2026-05-06 09:33 38.87489 1.36917 45 ft 1 kts 243°
2026-05-06 09:33 38.87485 1.36908 44 ft 1 kts 243°
2026-05-06 09:33 38.87475 1.36884 45 ft 5 kts 243°
2026-05-06 09:34 38.87453 1.36829 47 ft 7 kts 242°
2026-05-06 09:34 38.87412 1.36783 48 ft 9 kts 195°
2026-05-06 09:34 38.87352 1.36821 46 ft 10 kts 149°
2026-05-06 09:34 38.87277 1.36836 43 ft 12 kts 209°
2026-05-06 09:35 38.87230 1.36727 42 ft 16 kts 242°
2026-05-06 09:35 38.87173 1.36592 41 ft 19 kts 242°
2026-05-06 09:35 38.87109 1.36434 39 ft 21 kts 242°
2026-05-06 09:35 38.87038 1.36264 37 ft 18 kts 241°
2026-05-06 09:36 38.86988 1.36143 36 ft 16 kts 242°
2026-05-06 09:36 38.86928 1.36003 34 ft 20 kts 242°
2026-05-06 09:36 38.86885 1.35897 32 ft 13 kts 242°
2026-05-06 09:36 38.86849 1.35810 30 ft 7 kts 242°
2026-05-06 09:37 38.86802 1.35762 28 ft 10 kts 185°
2026-05-06 09:37 38.86748 1.35822 30 ft 9 kts 118°
2026-05-06 09:37 38.86728 1.35883 32 ft 6 kts 113°
2026-05-06 09:37 38.86722 1.35943 31 ft 8 kts 77°
2026-05-06 09:38 38.86736 1.35981 31 ft 0 kts 65°
2026-05-06 09:38 38.86755 1.36033 32 ft 29 kts 63°
2026-05-06 09:39 38.87013 1.36651 34 ft 125 kts 62°
2026-05-06 09:39 38.87493 1.37850 498 ft 157 kts 63°
2026-05-06 09:39 38.87977 1.39149 1422 ft 168 kts 67°
2026-05-06 09:39 38.88328 1.40563 2421 ft 171 kts 76°
2026-05-06 09:40 38.88616 1.42143 3099 ft 192 kts 77°
2026-05-06 09:40 38.88928 1.43864 3819 ft 208 kts 77°
2026-05-06 09:40 38.89634 1.47684 5384 ft 227 kts 76°
2026-05-06 09:41 38.90009 1.49672 6287 ft 231 kts 76°
2026-05-06 09:41 38.90391 1.51685 7121 ft 235 kts 76°
2026-05-06 09:41 38.90873 1.53734 7824 ft 244 kts 64°
2026-05-06 09:41 38.91907 1.55501 8500 ft 253 kts 40°
2026-05-06 09:42 38.93398 1.56729 9139 ft 262 kts 28°
2026-05-06 09:42 38.94924 1.58187 9486 ft 284 kts 41°
2026-05-06 09:42 38.96362 1.60037 9966 ft 299 kts 45°
2026-05-06 09:42 38.97799 1.61944 10633 ft 304 kts 44°
2026-05-06 09:43 38.99333 1.63852 11288 ft 309 kts 38°
2026-05-06 09:43 39.01194 1.65220 11950 ft 310 kts 16°
2026-05-06 09:43 39.03307 1.65722 12640 ft 310 kts
2026-05-06 09:43 39.05479 1.65971 13332 ft 316 kts
2026-05-06 09:44 39.07681 1.66233 14006 ft 320 kts 360°
2026-05-06 09:44 39.09892 1.66090 14652 ft 317 kts 345°
2026-05-06 09:44 39.11979 1.65250 15341 ft 313 kts 330°
2026-05-06 09:44 39.13966 1.64083 15687 ft 328 kts 330°
2026-05-06 09:45 39.16111 1.62849 15876 ft 347 kts 331°
2026-05-06 09:45 39.18375 1.61571 16051 ft 364 kts 332°
2026-05-06 09:45 39.20726 1.60261 16521 ft 371 kts 332°
2026-05-06 09:45 39.23108 1.58939 17092 ft 375 kts 332°
2026-05-06 09:46 39.25511 1.57602 17652 ft 378 kts 332°
2026-05-06 09:46 39.27940 1.56247 18229 ft 382 kts 332°
2026-05-06 09:46 39.30361 1.54894 18747 ft 385 kts 332°
2026-05-06 09:46 39.32857 1.53497 19306 ft 387 kts 332°
2026-05-06 09:47 39.35341 1.52105 19642 ft 390 kts 332°
2026-05-06 09:47 39.37807 1.50722 19913 ft 393 kts 331°
2026-05-06 09:47 39.40313 1.49315 20552 ft 393 kts 331°
2026-05-06 09:47 39.42826 1.47903 21112 ft 395 kts 331°
2026-05-06 09:48 39.45355 1.46479 21659 ft 398 kts 331°
2026-05-06 09:48 39.47904 1.45043 22207 ft 401 kts 330°
2026-05-06 09:48 39.50471 1.43596 22770 ft 404 kts 330°
2026-05-06 09:48 39.53057 1.42138 23331 ft 407 kts 330°
2026-05-06 09:49 39.55664 1.40667 23820 ft 410 kts 330°
2026-05-06 09:49 39.58295 1.39225 24310 ft 414 kts 333°
2026-05-06 09:49 39.61047 1.38151 24791 ft 422 kts 340°
2026-05-06 09:49 39.63969 1.37521 25261 ft 431 kts 348°
2026-05-06 09:50 39.66967 1.37160 25707 ft 434 kts 348°
2026-05-06 09:50 39.69986 1.36773 26149 ft 437 kts 348°
2026-05-06 09:50 39.73015 1.36371 26608 ft 439 kts 347°
2026-05-06 09:50 39.76070 1.35962 27051 ft 442 kts 347°
2026-05-06 09:51 39.79137 1.35552 27488 ft 445 kts 347°
2026-05-06 09:51 39.82190 1.35145 27907 ft 448 kts 347°
2026-05-06 09:51 39.85298 1.34731 28336 ft 451 kts 347°
2026-05-06 09:51 39.88431 1.34312 28752 ft 453 kts 347°
2026-05-06 09:52 39.91574 1.33893 29161 ft 456 kts 347°
2026-05-06 09:52 39.94744 1.33470 29550 ft 459 kts 347°
2026-05-06 09:52 39.97930 1.33044 29954 ft 462 kts 347°
2026-05-06 09:52 40.01132 1.32617 30317 ft 464 kts 347°
2026-05-06 09:53 40.04351 1.32186 30656 ft 468 kts 346°
2026-05-06 09:53 40.07603 1.31751 31009 ft 470 kts 346°
2026-05-06 09:53 40.10826 1.31319 31371 ft 472 kts 346°
2026-05-06 09:53 40.14096 1.30881 31715 ft 475 kts 346°
2026-05-06 09:54 40.17393 1.30438 32059 ft 477 kts 346°
2026-05-06 09:54 40.20706 1.29992 32385 ft 480 kts 346°
2026-05-06 09:54 40.24033 1.29544 32679 ft 482 kts 346°
2026-05-06 09:54 40.27373 1.29095 32991 ft 483 kts 346°
2026-05-06 09:55 40.30724 1.28643 33216 ft 485 kts 346°
2026-05-06 09:55 40.34086 1.28189 33412 ft 487 kts 346°
2026-05-06 09:55 40.37462 1.27734 33625 ft 487 kts 346°
2026-05-06 09:55 40.40768 1.27287 33872 ft 487 kts 346°
2026-05-06 09:56 40.44128 1.26833 34098 ft 486 kts 346°
2026-05-06 09:56 40.47498 1.26377 34321 ft 486 kts 346°
2026-05-06 09:56 40.50861 1.25921 34522 ft 486 kts 346°
2026-05-06 09:56 40.54196 1.25467 34712 ft 486 kts 347°
2026-05-06 09:57 40.57555 1.25010 34901 ft 486 kts 347°
2026-05-06 09:57 40.60916 1.24552 35089 ft 486 kts 347°
2026-05-06 09:57 40.64283 1.24092 35275 ft 486 kts 347°
2026-05-06 09:57 40.67641 1.23633 35465 ft 486 kts 347°
2026-05-06 09:58 40.71006 1.23173 35648 ft 486 kts 347°
2026-05-06 09:58 40.74330 1.22717 35840 ft 486 kts 347°
2026-05-06 09:58 40.77696 1.22256 36019 ft 486 kts 347°
2026-05-06 09:58 40.81060 1.21794 36209 ft 486 kts 347°
2026-05-06 09:59 40.84431 1.21330 36384 ft 487 kts 347°
2026-05-06 09:59 40.87794 1.20868 36573 ft 487 kts 347°
2026-05-06 09:59 40.91165 1.20404 36787 ft 487 kts 348°
2026-05-06 09:59 40.94530 1.19939 36982 ft 486 kts 348°
2026-05-06 10:00 40.97894 1.19475 37160 ft 486 kts 348°
2026-05-06 10:00 41.01216 1.19017 37353 ft 486 kts 348°
2026-05-06 10:00 41.04579 1.18553 37534 ft 486 kts 348°
2026-05-06 10:00 41.07941 1.18088 37725 ft 486 kts 348°
2026-05-06 10:01 41.11307 1.17622 37910 ft 486 kts 348°
2026-05-06 10:01 41.14665 1.17157 38140 ft 485 kts 348°
2026-05-06 10:01 41.18034 1.16729 38330 ft 486 kts 349°
2026-05-06 10:01 41.21401 1.16389 38529 ft 486 kts 350°
2026-05-06 10:02 41.24777 1.16063 38688 ft 486 kts 350°
2026-05-06 10:02 41.28145 1.15728 38832 ft 486 kts 350°
2026-05-06 10:02 41.31515 1.15382 38981 ft 486 kts 350°
2026-05-06 10:02 41.34838 1.15036 39117 ft 486 kts 350°
2026-05-06 10:03 41.41603 1.14320 39311 ft 487 kts 350°
2026-05-06 10:03 41.44976 1.13966 39453 ft 487 kts 350°
2026-05-06 10:03 41.48355 1.13611 39597 ft 487 kts 350°
2026-05-06 10:04 41.51736 1.13256 39742 ft 487 kts 351°
2026-05-06 10:04 41.55107 1.12901 39895 ft 486 kts 351°
2026-05-06 10:04 41.61864 1.12185 39976 ft 487 kts 351°
2026-05-06 10:05 41.68572 1.11473 39973 ft 486 kts 351°
2026-05-06 10:05 41.75316 1.10756 39984 ft 486 kts 351°
2026-05-06 10:06 41.82060 1.10038 39998 ft 486 kts 351°
2026-05-06 10:06 41.88804 1.09319 40007 ft 486 kts 351°
2026-05-06 10:07 41.95504 1.08602 40011 ft 486 kts 351°
2026-05-06 10:07 42.02246 1.07880 40016 ft 486 kts 351°
2026-05-06 10:08 42.08992 1.07158 40001 ft 486 kts 351°
2026-05-06 10:08 42.15738 1.06431 39985 ft 486 kts 351°
2026-05-06 10:09 42.22434 1.05710 39961 ft 486 kts 351°
2026-05-06 10:09 42.29172 1.04985 39955 ft 486 kts 351°
2026-05-06 10:10 42.35913 1.04257 39944 ft 485 kts 351°
2026-05-06 10:10 42.42640 1.03529 39953 ft 485 kts 351°
2026-05-06 10:11 42.49320 1.02801 39956 ft 485 kts 351°
2026-05-06 10:11 42.56043 1.02065 39953 ft 484 kts 351°
2026-05-06 10:12 42.62766 1.01331 39951 ft 485 kts 351°
2026-05-06 10:12 42.69485 1.00600 39952 ft 484 kts 351°
2026-05-06 10:13 42.76185 0.99791 39954 ft 481 kts 348°
2026-05-06 10:13 42.82639 0.97925 39943 ft 476 kts 341°
2026-05-06 10:14 42.89055 0.95716 39948 ft 476 kts 341°
2026-05-06 10:14 42.95480 0.93517 39952 ft 476 kts 341°
2026-05-06 10:15 43.01901 0.91302 39975 ft 476 kts 341°
2026-05-06 10:15 43.08326 0.89076 39972 ft 477 kts 341°
2026-05-06 10:16 43.14708 0.86860 39968 ft 476 kts 341°
2026-05-06 10:16 43.21136 0.84623 39967 ft 476 kts 341°
2026-05-06 10:17 43.27567 0.82377 39959 ft 477 kts 342°
2026-05-06 10:17 43.32920 0.80506 39968 ft 478 kts 342°
2026-05-06 10:18 43.39361 0.78251 39966 ft 478 kts 342°
2026-05-06 10:18 43.46791 0.75368 39969 ft 476 kts 336°
2026-05-06 10:19 43.52879 0.71852 39964 ft 474 kts 333°
2026-05-06 10:19 43.58954 0.68300 39960 ft 474 kts 333°
2026-05-06 10:20 43.64001 0.65340 39970 ft 475 kts 334°
2026-05-06 10:20 43.71062 0.61171 39960 ft 475 kts 333°
2026-05-06 10:21 43.77131 0.57574 39960 ft 475 kts 333°
2026-05-06 10:21 43.82216 0.54555 39959 ft 475 kts 333°
2026-05-06 10:22 43.88246 0.50966 39958 ft 475 kts 334°
2026-05-06 10:22 43.94313 0.47348 39956 ft 475 kts 333°
2026-05-06 10:23 44.00382 0.43721 39958 ft 475 kts 333°
2026-05-06 10:23 44.06442 0.40089 39960 ft 475 kts 334°
2026-05-06 10:24 44.12468 0.36471 39964 ft 475 kts 334°
2026-05-06 10:24 44.18539 0.32819 39961 ft 475 kts 334°
2026-05-06 10:25 44.24617 0.29152 39961 ft 477 kts 334°
2026-05-06 10:25 44.30710 0.25470 39923 ft 475 kts 334°
2026-05-06 10:26 44.36717 0.21831 39928 ft 474 kts 334°
2026-05-06 10:26 44.42780 0.18149 39934 ft 475 kts 334°
2026-05-06 10:27 44.48838 0.14462 39917 ft 475 kts 334°
2026-05-06 10:27 44.54903 0.10762 39915 ft 475 kts 334°
2026-05-06 10:28 44.60927 0.07081 39916 ft 476 kts 334°
2026-05-06 10:28 44.66997 0.03361 39913 ft 477 kts 334°
2026-05-06 10:29 44.73082 -0.00376 39920 ft 477 kts 334°
2026-05-06 10:29 44.79152 -0.04114 39908 ft 476 kts 334°
2026-05-06 10:30 44.85212 -0.07855 39905 ft 475 kts 334°
2026-05-06 10:30 44.91219 -0.11572 39902 ft 474 kts 334°
2026-05-06 10:31 44.97255 -0.15320 39896 ft 474 kts 334°
2026-05-06 10:31 45.03295 -0.19074 39898 ft 474 kts 334°
2026-05-06 10:32 45.09333 -0.22833 39875 ft 475 kts 334°
2026-05-06 10:32 45.15337 -0.26579 39879 ft 475 kts 334°
2026-05-06 10:33 45.21381 -0.30352 39903 ft 474 kts 334°
2026-05-06 10:33 45.27422 -0.34134 39903 ft 474 kts 334°
2026-05-06 10:34 45.33457 -0.37922 39892 ft 475 kts 334°
2026-05-06 10:34 45.39460 -0.41704 39911 ft 475 kts 334°
2026-05-06 10:35 45.45490 -0.45512 39900 ft 475 kts 334°
2026-05-06 10:35 45.51523 -0.49330 39904 ft 475 kts 334°
2026-05-06 10:36 45.57568 -0.53166 39906 ft 475 kts 334°
2026-05-06 10:36 45.63608 -0.57007 39910 ft 475 kts 334°
2026-05-06 10:37 45.69602 -0.60828 39908 ft 475 kts 334°
2026-05-06 10:37 45.75631 -0.64680 39911 ft 474 kts 334°
2026-05-06 10:38 45.81662 -0.68542 39906 ft 474 kts 334°
2026-05-06 10:38 45.87689 -0.72411 39911 ft 475 kts 334°
2026-05-06 10:39 45.93712 -0.76289 39920 ft 475 kts 334°
2026-05-06 10:39 45.99743 -0.80180 39925 ft 474 kts 334°
2026-05-06 10:40 46.05717 -0.84044 39923 ft 474 kts 334°
2026-05-06 10:40 46.11726 -0.87938 39917 ft 473 kts 334°
2026-05-06 10:41 46.17734 -0.91838 39925 ft 473 kts 334°
2026-05-06 10:41 46.23964 -0.94929 39934 ft 475 kts 345°
2026-05-06 10:42 46.30394 -0.96916 39926 ft 475 kts 346°
2026-05-06 10:42 46.36865 -0.98929 39936 ft 476 kts 346°
2026-05-06 10:43 46.43353 -1.00937 39926 ft 477 kts 346°
2026-05-06 10:44 46.53088 -1.03940 39939 ft 477 kts 346°
2026-05-06 10:44 46.59536 -1.05934 39936 ft 477 kts 346°
2026-05-06 10:45 46.66023 -1.07944 39932 ft 476 kts 346°
2026-05-06 10:45 46.72492 -1.09954 39932 ft 476 kts 346°
2026-05-06 10:46 46.78963 -1.11968 39931 ft 475 kts 346°
2026-05-06 10:46 46.85389 -1.13975 39931 ft 475 kts 346°
2026-05-06 10:47 46.91854 -1.16001 39928 ft 475 kts 346°
2026-05-06 10:47 46.98330 -1.18031 39931 ft 476 kts 346°
2026-05-06 10:48 47.04817 -1.20072 39933 ft 476 kts 346°
2026-05-06 10:48 47.11284 -1.22111 39943 ft 476 kts 346°
2026-05-06 10:49 47.17714 -1.24144 39950 ft 475 kts 346°
2026-05-06 10:49 47.24174 -1.26192 39945 ft 475 kts 346°
2026-05-06 10:50 47.30640 -1.28247 39947 ft 475 kts 346°
2026-05-06 10:50 47.37108 -1.30308 39941 ft 475 kts 346°
2026-05-06 10:51 47.43570 -1.32370 39937 ft 475 kts 346°
2026-05-06 10:51 47.49982 -1.34424 39938 ft 475 kts 346°
2026-05-06 10:52 47.56443 -1.36498 39941 ft 475 kts 346°
2026-05-06 10:52 47.62896 -1.38576 39947 ft 475 kts 346°
2026-05-06 10:53 47.69349 -1.40614 39940 ft 475 kts 349°
2026-05-06 10:53 47.75891 -1.41529 39942 ft 476 kts 356°
2026-05-06 10:54 47.82509 -1.42026 39954 ft 476 kts 356°
2026-05-06 10:54 47.89134 -1.42551 39954 ft 477 kts 355°
2026-05-06 10:55 47.95757 -1.43056 39956 ft 477 kts 356°
2026-05-06 10:55 48.02386 -1.43558 39961 ft 477 kts 356°
2026-05-06 10:56 48.08982 -1.44039 39963 ft 477 kts 356°
2026-05-06 10:56 48.15619 -1.44508 39962 ft 477 kts 356°
2026-05-06 10:57 48.22257 -1.44982 39971 ft 477 kts 356°
2026-05-06 10:57 48.28889 -1.45460 39965 ft 477 kts 356°
2026-05-06 10:58 48.35483 -1.45936 39957 ft 477 kts 356°
2026-05-06 10:58 48.42117 -1.46417 39965 ft 477 kts 356°
2026-05-06 10:59 48.48747 -1.46898 39963 ft 477 kts 356°
2026-05-06 10:59 48.55381 -1.47381 39964 ft 477 kts 356°
2026-05-06 11:00 48.62013 -1.47864 39970 ft 477 kts 356°
2026-05-06 11:00 48.68605 -1.48346 39963 ft 477 kts 356°
2026-05-06 11:01 48.75238 -1.48833 39970 ft 478 kts 356°
2026-05-06 11:01 48.81882 -1.49322 39966 ft 478 kts 356°
2026-05-06 11:02 48.88515 -1.49872 39975 ft 477 kts 353°
2026-05-06 11:02 48.95000 -1.51576 39981 ft 476 kts 346°
2026-05-06 11:03 49.01486 -1.53649 39973 ft 477 kts 347°
2026-05-06 11:03 49.07978 -1.55708 39983 ft 476 kts 347°
2026-05-06 11:04 49.14467 -1.57794 39969 ft 476 kts 347°
2026-05-06 11:04 49.20948 -1.59890 39982 ft 476 kts 347°
2026-05-06 11:05 49.27385 -1.61978 39990 ft 476 kts 347°
2026-05-06 11:05 49.33871 -1.64087 39988 ft 476 kts 347°
2026-05-06 11:06 49.40347 -1.66199 39983 ft 476 kts 347°
2026-05-06 11:06 49.46819 -1.68315 40000 ft 475 kts 347°
2026-05-06 11:07 49.53289 -1.70411 39996 ft 475 kts 349°
2026-05-06 11:07 49.59846 -1.70886 39990 ft 478 kts
2026-05-06 11:08 49.66371 -1.68876 39992 ft 480 kts 17°
2026-05-06 11:08 49.72661 -1.65384 39989 ft 481 kts 19°
2026-05-06 11:09 49.78968 -1.61916 39992 ft 481 kts 18°
2026-05-06 11:09 49.85252 -1.58436 39607 ft 477 kts 18°
2026-05-06 11:09 49.88361 -1.56706 39102 ft 475 kts 18°
2026-05-06 11:10 49.91433 -1.54996 38492 ft 474 kts 18°
2026-05-06 11:10 49.94524 -1.53269 37761 ft 472 kts 18°
2026-05-06 11:10 49.97602 -1.51551 37089 ft 468 kts 19°
2026-05-06 11:10 50.00654 -1.49843 36369 ft 465 kts 18°
2026-05-06 11:11 50.03712 -1.48261 35673 ft 461 kts 17°
2026-05-06 11:11 50.06761 -1.46802 35012 ft 457 kts 15°
2026-05-06 11:11 50.09792 -1.45374 34271 ft 454 kts 16°
2026-05-06 11:11 50.12803 -1.43935 33454 ft 451 kts 16°
2026-05-06 11:12 50.15795 -1.42487 32408 ft 452 kts 17°
2026-05-06 11:12 50.18778 -1.41029 31270 ft 457 kts 16°
2026-05-06 11:12 50.21826 -1.39533 30258 ft 460 kts 16°
2026-05-06 11:12 50.24860 -1.38039 29488 ft 454 kts 16°
2026-05-06 11:13 50.27851 -1.36565 28575 ft 451 kts 16°
2026-05-06 11:13 50.30836 -1.35091 27757 ft 447 kts 16°
2026-05-06 11:13 50.33748 -1.33654 27018 ft 442 kts 17°
2026-05-06 11:13 50.36656 -1.32216 26267 ft 438 kts 16°
2026-05-06 11:14 50.39556 -1.30780 25531 ft 433 kts 16°
2026-05-06 11:14 50.42373 -1.29386 24830 ft 429 kts 16°
2026-05-06 11:14 50.45206 -1.27981 24139 ft 424 kts 16°
2026-05-06 11:14 50.47984 -1.26504 23365 ft 421 kts 21°
2026-05-06 11:15 50.50598 -1.24472 22589 ft 417 kts 29°
2026-05-06 11:15 50.52968 -1.21958 21508 ft 408 kts 37°
2026-05-06 11:15 50.55125 -1.19098 20349 ft 403 kts 39°
2026-05-06 11:15 50.57246 -1.16281 19269 ft 396 kts 39°
2026-05-06 11:16 50.59348 -1.13511 18171 ft 391 kts 38°
2026-05-06 11:16 50.61421 -1.10785 17348 ft 386 kts 38°
2026-05-06 11:16 50.63470 -1.08086 16525 ft 381 kts 38°
2026-05-06 11:16 50.65459 -1.05398 15913 ft 373 kts 41°
2026-05-06 11:17 50.67200 -1.02412 15611 ft 377 kts 49°
2026-05-06 11:17 50.68821 -0.99236 15369 ft 375 kts 50°
2026-05-06 11:17 50.70465 -0.96053 15036 ft 373 kts 49°
2026-05-06 11:17 50.72105 -0.92898 14483 ft 370 kts 49°
2026-05-06 11:18 50.73734 -0.89761 13794 ft 366 kts 49°
2026-05-06 11:18 50.75315 -0.86707 13428 ft 352 kts 49°
2026-05-06 11:18 50.76823 -0.83789 13240 ft 333 kts 49°
2026-05-06 11:18 50.78244 -0.81030 13054 ft 314 kts 49°
2026-05-06 11:19 50.79586 -0.78429 12803 ft 298 kts 49°
2026-05-06 11:19 50.80748 -0.75778 12544 ft 302 kts 59°
2026-05-06 11:19 50.81481 -0.72682 12330 ft 303 kts 75°
2026-05-06 11:19 50.81842 -0.69413 12168 ft 302 kts 78°
2026-05-06 11:20 50.82198 -0.66133 11995 ft 302 kts 77°
2026-05-06 11:20 50.82569 -0.62867 11753 ft 301 kts 77°
2026-05-06 11:20 50.82944 -0.59646 11399 ft 296 kts 77°
2026-05-06 11:20 50.83314 -0.56447 11126 ft 295 kts 77°
2026-05-06 11:21 50.83688 -0.53245 10818 ft 295 kts 77°
2026-05-06 11:21 50.84057 -0.50070 10466 ft 292 kts 77°
2026-05-06 11:21 50.84417 -0.46937 10175 ft 290 kts 77°
2026-05-06 11:21 50.84774 -0.43842 9903 ft 290 kts 77°
2026-05-06 11:22 50.85133 -0.40721 9560 ft 287 kts 77°
2026-05-06 11:22 50.85487 -0.37618 9296 ft 287 kts 77°
2026-05-06 11:22 50.85842 -0.34511 8980 ft 286 kts 77°
2026-05-06 11:22 50.86191 -0.31432 8770 ft 280 kts 77°
2026-05-06 11:23 50.86523 -0.28482 8637 ft 263 kts 77°
2026-05-06 11:23 50.86836 -0.25697 8228 ft 255 kts 76°
2026-05-06 11:23 50.87145 -0.22970 7837 ft 248 kts 76°
2026-05-06 11:23 50.87445 -0.20327 7597 ft 251 kts 76°
2026-05-06 11:24 50.87753 -0.17612 7332 ft 248 kts 76°
2026-05-06 11:24 50.88055 -0.14921 7084 ft 249 kts 76°
2026-05-06 11:24 50.88356 -0.12229 6830 ft 248 kts 76°
2026-05-06 11:24 50.88655 -0.09554 6572 ft 246 kts 76°
2026-05-06 11:25 50.89101 -0.06960 6153 ft 244 kts 58°
2026-05-06 11:25 50.90166 -0.05008 5730 ft 229 kts 30°
2026-05-06 11:25 50.91607 -0.04213 5383 ft 214 kts 360°
2026-05-06 11:25 50.93043 -0.04712 5276 ft 217 kts 336°
2026-05-06 11:26 50.94357 -0.05799 5158 ft 214 kts 330°
2026-05-06 11:26 50.95562 -0.07177 5036 ft 215 kts 319°
2026-05-06 11:26 50.96511 -0.09021 4931 ft 218 kts 304°
2026-05-06 11:26 50.97157 -0.11134 4770 ft 221 kts 295°
2026-05-06 11:27 50.97627 -0.13461 4549 ft 222 kts 289°
2026-05-06 11:27 50.98004 -0.15841 4302 ft 224 kts 287°
2026-05-06 11:27 50.98351 -0.18221 4169 ft 216 kts 287°
2026-05-06 11:27 50.98679 -0.20470 4020 ft 203 kts 287°
2026-05-06 11:28 50.99006 -0.22632 3747 ft 198 kts 288°
2026-05-06 11:28 50.99347 -0.24808 3620 ft 207 kts 288°
2026-05-06 11:28 50.99691 -0.26988 3466 ft 201 kts 288°
2026-05-06 11:28 51.00036 -0.29167 3312 ft 206 kts 288°
2026-05-06 11:29 51.00377 -0.31359 3169 ft 203 kts 288°
2026-05-06 11:29 51.00711 -0.33534 3031 ft 204 kts 288°
2026-05-06 11:29 51.01058 -0.35693 2997 ft 199 kts 289°
2026-05-06 11:29 51.01424 -0.37742 2987 ft 185 kts 290°
2026-05-06 11:30 51.01767 -0.39686 2997 ft 184 kts 289°
2026-05-06 11:30 51.02094 -0.41637 2993 ft 183 kts 289°
2026-05-06 11:30 51.02416 -0.43597 2989 ft 181 kts 289°
2026-05-06 11:30 51.02727 -0.45535 2995 ft 185 kts 288°
2026-05-06 11:31 51.03033 -0.47494 2991 ft 180 kts 288°
2026-05-06 11:31 51.03333 -0.49444 2991 ft 185 kts 288°
2026-05-06 11:31 51.03731 -0.51336 2979 ft 177 kts 307°
2026-05-06 11:31 51.04655 -0.52558 2990 ft 173 kts 342°
2026-05-06 11:32 51.05825 -0.52591 3002 ft 172 kts 17°
2026-05-06 11:32 51.06882 -0.51795 3007 ft 176 kts 29°
2026-05-06 11:32 51.07925 -0.50750 2988 ft 174 kts 31°
2026-05-06 11:32 51.08914 -0.49696 2998 ft 173 kts 32°
2026-05-06 11:33 51.09872 -0.48491 2998 ft 178 kts 42°
2026-05-06 11:33 51.10602 -0.46951 2999 ft 171 kts 57°
2026-05-06 11:33 51.11070 -0.45282 2995 ft 159 kts 67°
2026-05-06 11:33 51.11386 -0.43592 2997 ft 164 kts 70°
2026-05-06 11:34 51.11645 -0.41870 2937 ft 163 kts 72°
2026-05-06 11:34 51.11901 -0.40114 2753 ft 161 kts 73°
2026-05-06 11:34 51.12137 -0.38392 2524 ft 161 kts 73°
2026-05-06 11:34 51.12376 -0.36666 2302 ft 159 kts 73°
2026-05-06 11:35 51.12614 -0.34950 2074 ft 158 kts 72°
2026-05-06 11:35 51.12855 -0.33234 1858 ft 159 kts 72°
2026-05-06 11:35 51.13078 -0.31598 1655 ft 160 kts 73°
2026-05-06 11:35 51.13314 -0.29904 1418 ft 155 kts 72°
2026-05-06 11:36 51.13549 -0.28225 1195 ft 153 kts 72°
2026-05-06 11:36 51.13772 -0.26561 975 ft 157 kts 71°
2026-05-06 11:36 51.14008 -0.24910 744 ft 148 kts 73°
2026-05-06 11:36 51.14211 -0.23397 527 ft 134 kts 73°
2026-05-06 11:37 51.14405 -0.21957 371 ft 131 kts 73°
2026-05-06 11:37 51.14594 -0.20567 240 ft 133 kts 72°
2026-05-06 11:37 51.14787 -0.19263 219 ft 97 kts 79°
2026-05-06 11:37 51.14885 -0.18530 214 ft 38 kts 76°
2026-05-06 11:38 51.14926 -0.18246 213 ft 24 kts 78°
2026-05-06 11:38 51.14974 -0.17990 220 ft 24 kts 65°
2026-05-06 11:38 51.15051 -0.17807 217 ft 10 kts 51°
2026-05-06 11:38 51.15106 -0.17755 213 ft 10 kts 11°
2026-05-06 11:39 51.15179 -0.17766 214 ft 11 kts 351°
2026-05-06 11:39 51.15257 -0.17762 217 ft 11 kts 31°
2026-05-06 11:39 51.15276 -0.17642 213 ft 12 kts 80°
2026-05-06 11:39 51.15293 -0.17498 216 ft 14 kts 79°
2026-05-06 11:40 51.15338 -0.17371 215 ft 13 kts 23°
2026-05-06 11:40 51.15428 -0.17397 214 ft 11 kts 347°
2026-05-06 11:40 51.15506 -0.17425 210 ft 12 kts 347°
2026-05-06 11:40 51.15574 -0.17416 215 ft 9 kts 33°
2026-05-06 11:41 51.15599 -0.17324 215 ft 10 kts 73°
2026-05-06 11:41 51.15620 -0.17205 219 ft 12 kts 75°
2026-05-06 11:41 51.15633 -0.17120 218 ft 8 kts 76°
2026-05-06 11:41 51.15645 -0.17025 210 ft 7 kts 78°
2026-05-06 11:42 51.15657 -0.16937 212 ft 8 kts 78°
2026-05-06 11:42 51.15681 -0.16866 219 ft 7 kts 39°
2026-05-06 11:42 51.15722 -0.16850 214 ft 4 kts 12°
2026-05-06 11:42 51.15734 -0.16847 210 ft 2 kts 10°
2026-05-06 11:43 51.15748 -0.16843 210 ft 2 kts
2026-05-06 11:43 51.15752 -0.16842 210 ft 0 kts